Boothville, LA

8:50 PM CDT on May 20, 2018 (GMT -0500)
Boothville

Weather History for KBVE - May, 2013

Change the Weather History Date:

Monday, May 20, 2013

  Actual Average (KAXO) Record (KAXO)
Temperature  
Mean Temperature 78 °F -  
Max Temperature 84 °F 77 °F 87 °F (2012)
Min Temperature 73 °F 74 °F 64 °F (2002)
Cooling Degree Days 14    
Growing Degree Days 28 (Base 50)    
Moisture  
Dew Point 73 °F    
Average Humidity 91    
Maximum Humidity 100    
Minimum Humidity 65    
Precipitation  
Precipitation 0.00 in - - ()
Sea Level Pressure  
Sea Level Pressure 30.00 in    
Wind  
Wind Speed 7 mph (SE)    
Max Wind Speed 14 mph    
Max Gust Speed -    
Visibility 8 miles    
Events      
Averages and records for this station are not official NWS values.
T = Trace of Precipitation, MM = Missing Value Source: NWS Daily Summary

Daily Weather History Graph

Daily Weather History Graph

Search for Another Location

Airport or City:

Astronomy

May. 20, 2013 Rise Set
Actual Time 6:02 AM CDT 7:46 PM CDT
Civil Twilight 5:36 AM CDT 8:12 PM CDT
Nautical Twilight 5:04 AM CDT 8:43 PM CDT
Astronomical Twilight 4:31 AM CDT 9:17 PM CDT
Moon 3:13 PM CDT (5/20) 2:34 AM CDT (5/20)
Length of Visible Light 14h 35m
Length of Day
13h 43m
Waxing Gibbous, 75% of the Moon is Illuminated
May 20
Waxing Gibbous
May 24
Full
May 31
Last Quarter
Jun 8
New
Jun 16
First Quarter

Hourly Weather History & Observations

Time (CDT) Temp. Heat Index Dew Point Humidity Pressure Visibility Wind Dir Wind Speed Gust Speed Precip Events Conditions
12:01 AM 73.4 °F - 73.4 °F 100% 30.02 in 2.0 mi East 3.5 mph - N/A   Overcast
12:26 AM 73.4 °F - 73.4 °F 100% 30.01 in 1.5 mi ESE 4.6 mph - N/A   Overcast
12:49 AM 73.4 °F - 73.4 °F 100% 30.01 in 0.8 mi ESE 5.8 mph - N/A   Mist
12:51 AM 73.9 °F - 73.9 °F 100% 30.01 in 0.8 mi ESE 4.6 mph - N/A   Mist
1:09 AM 73.4 °F - 73.4 °F 100% 30.00 in 1.0 mi ESE 4.6 mph - N/A   Mist
1:51 AM 73.0 °F - 73.0 °F 100% 29.99 in 1.5 mi ESE 5.8 mph - N/A   Overcast
2:34 AM 73.4 °F - 73.4 °F 100% 29.98 in 3.0 mi ESE 5.8 mph - N/A   Overcast
2:51 AM 73.9 °F - 73.9 °F 100% 29.99 in 10.0 mi SE 5.8 mph - N/A   Overcast
3:04 AM 73.4 °F - 73.4 °F 100% 29.99 in 10.0 mi ESE 5.8 mph - N/A   Overcast
3:12 AM 73.4 °F - 73.4 °F 100% 29.99 in 10.0 mi ESE 5.8 mph - N/A   Overcast
3:51 AM 73.9 °F - 73.9 °F 100% 30.00 in 10.0 mi ESE 6.9 mph - N/A   Overcast
4:51 AM 73.0 °F - 73.0 °F 100% 30.00 in 10.0 mi ESE 5.8 mph - N/A   Overcast
4:58 AM 73.4 °F - 73.4 °F 100% 30.00 in 10.0 mi ESE 4.6 mph - N/A   Overcast
5:51 AM 73.0 °F - 73.0 °F 100% 30.01 in 10.0 mi ESE 6.9 mph - N/A   Overcast
5:58 AM 73.4 °F - 73.4 °F 100% 30.01 in 10.0 mi ESE 6.9 mph - N/A   Mostly Cloudy
6:19 AM 73.4 °F - 73.4 °F 100% 30.01 in 10.0 mi ESE 6.9 mph - N/A   Overcast
6:32 AM 73.4 °F - 73.4 °F 100% 30.02 in 10.0 mi ESE 8.1 mph - N/A   Overcast
6:51 AM 73.0 °F - 73.0 °F 100% 30.02 in 10.0 mi ESE 6.9 mph - N/A   Overcast
7:51 AM 73.9 °F - 73.9 °F 100% 30.02 in 10.0 mi SE 6.9 mph - N/A   Overcast
8:17 AM 75.2 °F - 75.2 °F 100% 30.02 in 10.0 mi SE 9.2 mph - N/A   Scattered Clouds
8:51 AM 75.9 °F - 75.0 °F 97% 30.01 in 10.0 mi SSE 11.5 mph - N/A   Partly Cloudy
9:51 AM 80.1 °F 85.4 °F 75.9 °F 87% 30.02 in 10.0 mi South 12.7 mph - N/A   Clear
10:51 AM 81.0 °F 86.7 °F 75.0 °F 82% 30.02 in 10.0 mi South 13.8 mph - N/A   Partly Cloudy
11:51 AM 81.0 °F 86.7 °F 75.0 °F 82% 30.03 in 10.0 mi South 13.8 mph - N/A   Clear
12:51 PM 82.0 °F 87.9 °F 73.9 °F 76% 30.03 in 10.0 mi SSE 9.2 mph - N/A   Scattered Clouds
1:51 PM 82.9 °F 89.4 °F 73.9 °F 74% 30.03 in 10.0 mi South 9.2 mph - N/A   Clear
2:51 PM 84.0 °F 91.2 °F 73.9 °F 72% 30.01 in 10.0 mi South 9.2 mph - N/A   Partly Cloudy
3:51 PM 84.0 °F 89.0 °F 71.1 °F 65% 30.00 in 10.0 mi SSE 10.4 mph - N/A   Partly Cloudy
4:51 PM 82.0 °F 86.7 °F 72.0 °F 71% 29.99 in 10.0 mi SE 8.1 mph - N/A   Mostly Cloudy
5:06 PM 80.6 °F 84.6 °F 71.6 °F 74% 29.98 in 10.0 mi ESE 9.2 mph - N/A   Mostly Cloudy
5:14 PM 80.6 °F 84.6 °F 71.6 °F 74% 29.98 in 10.0 mi ESE 9.2 mph - N/A   Mostly Cloudy
5:51 PM 81.0 °F 85.2 °F 72.0 °F 74% 29.98 in 10.0 mi ESE 9.2 mph - N/A   Scattered Clouds
6:51 PM 80.1 °F 83.8 °F 72.0 °F 76% 29.97 in 10.0 mi ESE 6.9 mph - N/A   Clear
7:51 PM 77.0 °F - 72.0 °F 84% 29.96 in 10.0 mi ESE 6.9 mph - N/A   Clear
8:51 PM 75.0 °F - 73.9 °F 96% 29.97 in 10.0 mi ESE 5.8 mph - N/A   Clear
9:51 PM 75.0 °F - 73.9 °F 96% 29.99 in 10.0 mi ESE 5.8 mph - N/A   Clear
10:51 PM 75.0 °F - 73.9 °F 96% 30.00 in 10.0 mi ESE 6.9 mph - N/A   Clear
11:51 PM 73.9 °F - 73.0 °F 97% 29.99 in 10.0 mi SE 8.1 mph - N/A   Clear